Location: Meanaryar
(48.4161°N, 4.7315°W)
Time: 01:21:06
(UTC+00:00)

Sich 1 Rocket - Pass Details

Date: 18 September 2020
Orbit: 616 x 653 km, 82.5° (Epoch: 29 October)

Event Time Altitude Azimuth Distance (km) Brightness Sun altitude
Rises 19:20:22 0° 177° (S) 2,915 6.8 -10.0°
Reaches altitude 10° 19:22:36 10° 174° (S) 2,017 6.0 -10.4°
Maximum altitude 19:27:00 59° 95° (E) 745 3.6 -11.1°
Drops below altitude 10° 19:31:29 10° 17° (NNE) 2,056 6.2 -11.8°
Sets 19:33:47 0° 13° (NNE) 2,976 7.1 -12.2°
